Wind_Speed
11 12 12 12 14 15 12 11 13 14 14 13 13 13 13 12 10 8 6 4 3 4 6 7 8 8 7 7 7 7 8 8 9 9 9 9 9 9 8 8 8 7 7 6 6 6 6 6 6
10 10 11 11 14 11 11 12 13 13 13 13 13 13 13 12 10 8 6 4 2 3 4 6 8 8 8 8 8 8 8 8 9 8 9 9 9 8 8 8 8 7 7 6 6 6 6 6 6
9 9 9 10 10 8 9 10 11 12 12 13 13 13 13 12 10 9 7 5 3 1 2 4 6 7 8 8 8 8 8 8 8 8 9 9 8 8 8 7 7 7 7 7 6 6 6 6 6
8 8 9 10 7 7 8 9 9 10 12 13 13 14 13 12 11 10 8 6 4 1 1 3 5 6 7 8 9 9 8 8 9 9 9 9 8 8 7 7 7 7 7 7 6 6 6 6 6
7 7 8 7 6 6 7 8 9 9 10 12 13 13 14 12 11 10 9 7 5 3 1 2 4 6 8 8 9 9 9 9 9 9 8 8 8 7 7 7 7 7 6 6 6 6 6 6 6
6 6 6 3 5 6 7 8 8 9 9 10 12 12 13 12 11 11 10 8 6 4 2 2 4 6 8 9 9 10 10 9 9 9 8 8 7 7 7 7 6 6 6 6 6 5 5 5 5
5 6 4 4 6 6 7 7 7 8 8 9 10 11 12 12 12 11 10 9 7 5 3 3 4 6 8 9 10 10 10 10 10 9 9 7 7 7 6 6 6 6 5 5 5 5 4 4 5
5 5 5 5 6 6 6 7 7 7 7 9 9 10 11 12 12 12 11 10 8 6 4 4 5 6 8 9 11 11 11 11 11 10 9 8 7 7 6 6 5 5 5 5 5 4 4 4 4
5 4 3 5 5 6 7 7 7 7 7 9 10 10 11 11 12 13 12 11 9 7 6 5 6 7 9 10 11 12 12 12 12 10 9 9 8 7 7 6 5 5 5 5 5 4 4 3 3
5 3 4 5 6 6 6 7 7 8 9 10 11 11 11 11 12 13 13 11 10 8 7 6 6 7 9 10 12 13 13 13 12 11 11 9 8 7 7 6 6 5 5 5 4 4 3 3 3
6 5 5 5 6 6 6 6 7 8 9 10 11 12 12 12 13 13 13 12 10 9 8 7 7 8 9 11 12 13 13 14 13 12 11 10 9 8 8 7 6 6 5 5 4 4 3 3 3
7 7 7 7 6 6 6 7 8 8 8 10 11 12 12 13 14 13 13 12 11 9 9 8 7 7 10 10 12 13 14 15 15 13 12 11 10 10 9 8 6 6 6 5 4 4 3 3 3
8 8 8 8 8 8 8 8 8 8 9 10 11 12 13 14 14 13 12 12 12 10 10 9 7 7 9 10 12 13 14 15 15 14 14 13 12 11 10 9 7 6 6 5 4 4 4 3 3
9 9 9 10 10 9 9 8 8 8 9 10 12 13 14 14 14 13 12 13 12 11 11 9 8 9 9 10 11 13 14 15 15 15 15 14 13 12 11 9 8 7 7 6 5 5 4 3 3
10 10 11 11 11 10 9 8 9 9 10 11 12 13 14 15 14 13 13 13 12 11 11 10 8 9 8 10 11 11 13 14 15 15 15 15 14 13 12 10 9 8 7 6 5 5 5 4 4
11 11 12 13 12 11 10 9 11 11 11 12 13 14 14 15 14 13 13 13 13 12 11 10 8 8 9 10 12 13 13 14 16 16 16 16 15 15 13 12 10 9 8 7 6 5 5 5 4
13 12 13 14 13 12 11 10 12 12 12 12 13 14 15 15 14 14 14 14 13 13 12 10 9 9 9 10 12 13 13 14 16 16 16 16 16 15 14 13 11 10 9 8 7 6 6 5 5
14 13 14 15 15 13 12 12 13 13 13 14 14 15 16 15 15 15 14 13 13 13 12 10 10 9 9 10 13 13 13 14 17 18 16 16 16 16 15 14 13 11 10 9 8 7 6 6 6
15 15 15 16 15 14 13 13 14 14 15 15 15 15 15 15 15 14 13 13 13 13 12 12 11 11 10 11 13 14 14 14 16 18 18 17 16 16 16 14 13 12 11 10 9 8 7 6 6
16 16 16 17 16 15 14 14 15 15 15 15 15 15 15 15 14 13 13 12 13 13 13 12 11 11 11 11 13 14 14 14 15 18 19 18 17 17 16 16 15 13 12 11 10 9 8 7 7
18 17 17 17 17 16 15 15 15 15 15 15 15 14 15 14 13 13 13 12 12 12 12 11 9 8 9 10 12 14 14 14 14 16 19 18 18 18 18 17 16 14 13 12 11 10 9 9 8
20 19 18 18 16 17 16 13 15 15 15 14 14 13 13 13 13 13 14 13 13 12 11 10 8 8 8 10 10 12 13 14 14 16 18 18 18 18 19 18 17 16 15 13 12 11 11 11 10
22 21 19 18 17 16 16 15 14 14 14 13 13 13 13 13 13 13 13 13 12 11 10 10 8 8 8 8 9 11 13 15 16 16 17 19 19 19 19 18 18 17 16 15 14 13 13 12 12
22 21 20 18 17 16 16 15 13 13 13 12 13 13 13 13 13 13 12 12 11 11 10 10 8 8 8 8 9 11 13 14 16 16 17 18 19 20 20 19 19 19 18 17 16 15 14 14 13
22 20 19 17 16 15 17 14 13 13 12 12 12 12 11 12 12 11 10 11 11 10 10 9 8 8 8 9 9 11 12 13 15 16 17 18 18 20 20 20 19 19 19 18 17 16 16 16 15
22 20 18 15 13 14 17 13 12 12 11 10 10 9 9 9 10 9 9 9 9 9 9 8 7 7 7 8 9 11 12 12 14 16 17 18 19 19 20 20 20 20 20 19 18 18 18 17 17
22 20 19 18 16 14 14 13 12 11 10 9 9 7 7 7 8 8 8 8 8 8 7 6 7 7 7 8 9 10 11 13 14 16 16 18 19 20 20 20 20 21 21 21 20 19 19 18 18
22 21 20 18 16 13 13 12 10 10 8 7 7 7 7 6 6 6 6 7 7 7 7 6 6 6 7 8 9 10 11 12 14 15 16 17 19 20 19 21 21 22 22 22 21 21 20 20 20
21 21 20 18 17 13 10 11 12 10 8 7 7 7 6 6 7 6 6 6 7 6 6 6 6 5 6 8 9 10 11 12 13 15 16 17 19 21 21 21 22 22 23 23 22 22 21 21 21
22 21 19 18 17 14 11 12 13 10 9 9 8 8 7 7 7 7 6 6 5 5 6 5 5 5 6 6 8 11 12 12 13 15 16 17 18 20 21 22 22 22 23 23 23 23 22 22 22
Wind_Direction
80 76 72 67 59 58 60 59 61 60 58 57 55 53 53 53 53 55 58 79 121 152 162 167 172 177 180 182 176 167 158 149 139 128 120 113 109 105 102 101 101 101 103 108 112 114 119 122 121
80 78 72 64 67 61 52 53 57 58 55 53 50 49 49 48 47 47 48 60 90 151 169 175 181 185 187 187 181 176 167 154 143 132 125 117 112 107 104 104 102 102 103 108 112 113 117 122 124
81 77 69 62 67 66 52 49 51 52 49 49 47 45 45 42 42 40 40 42 51 123 176 183 188 194 194 192 186 180 173 163 150 137 129 122 115 109 106 105 104 103 104 109 112 113 117 122 124
77 74 64 61 59 43 44 43 40 42 42 44 43 42 41 40 38 35 32 29 29 32 193 197 201 202 201 199 193 187 178 167 158 146 134 126 118 113 110 108 106 106 107 110 113 114 118 121 124
72 67 58 49 36 31 29 32 31 31 35 38 39 39 37 36 33 28 23 20 16 12 326 219 217 216 212 207 201 190 183 175 166 155 144 137 128 121 115 112 111 112 112 113 115 115 120 123 128
59 57 60 43 12 22 22 21 21 26 30 32 33 32 31 30 28 24 16 10 5 352 314 253 230 223 217 212 206 198 193 187 178 166 156 147 138 132 123 117 117 118 117 118 118 118 121 126 132
47 48 46 20 5 10 14 13 15 18 22 25 24 25 24 24 22 18 13 7 359 341 309 270 247 231 220 214 211 208 202 195 187 179 169 160 150 144 133 126 125 124 123 126 127 124 125 128 133
32 32 24 4 0 354 0 2 4 3 9 10 13 18 17 16 15 12 6 359 353 344 311 280 253 234 223 216 212 211 207 201 193 187 180 173 165 160 148 139 133 130 129 132 134 131 131 135 139
10 13 347 342 347 342 349 355 358 352 352 358 3 3 2 4 3 2 360 355 349 340 319 296 264 234 227 221 214 211 209 204 199 195 189 185 176 169 162 155 146 141 139 141 141 139 140 144 148
349 348 315 333 343 340 342 347 343 338 340 343 345 347 346 350 354 353 353 350 343 332 316 300 272 241 229 223 218 215 212 207 205 202 198 193 188 181 173 168 160 155 153 151 150 147 149 153 157
327 320 318 326 327 326 325 327 327 326 329 327 331 338 342 344 346 345 343 341 335 330 318 302 283 247 234 227 223 221 217 212 208 207 205 198 193 187 184 178 170 167 164 162 161 159 157 163 168
311 312 314 316 316 312 309 311 315 315 315 315 322 334 337 335 335 334 332 333 330 326 313 301 284 257 243 232 225 224 218 215 212 210 208 201 195 189 187 185 181 178 173 170 167 168 168 172 182
303 304 309 310 310 307 304 306 306 304 306 311 317 324 331 331 329 325 324 326 327 321 314 305 287 265 252 242 232 226 221 218 218 213 210 204 197 193 191 191 191 189 184 180 179 180 182 180 182
297 300 302 303 304 306 306 303 300 301 308 313 315 320 325 326 327 328 319 321 320 319 313 306 287 275 257 240 229 226 221 219 217 214 211 206 202 199 197 197 199 195 191 188 187 187 185 181 177
293 296 299 300 303 309 309 306 303 307 312 312 314 316 319 324 324 323 319 318 317 315 308 298 285 273 254 238 226 226 224 220 216 214 212 208 205 204 203 201 200 200 200 198 194 197 193 188 182
291 295 297 300 304 308 307 300 301 308 309 308 310 312 316 321 321 319 321 318 311 309 305 295 287 273 251 242 229 226 227 223 219 215 214 210 207 207 208 207 203 203 205 205 203 201 198 195 189
288 291 291 295 300 303 304 300 302 308 307 306 307 310 312 313 314 317 318 317 313 310 307 294 286 273 253 243 234 230 233 226 219 215 213 211 207 206 207 208 206 207 210 211 209 202 198 197 194
282 285 286 289 294 298 302 301 302 304 302 302 302 305 308 307 308 312 312 314 312 307 302 298 289 273 261 245 232 229 231 226 218 215 213 211 209 206 206 206 206 207 208 210 209 204 201 202 202
276 279 282 285 290 295 301 302 302 302 300 301 300 301 302 304 306 308 308 309 308 306 300 296 283 272 266 252 235 231 230 225 220 216 214 213 211 209 208 207 206 207 207 209 209 205 205 205 205
273 276 278 282 288 294 300 302 300 297 298 299 298 296 296 299 300 305 305 304 303 303 303 299 289 276 265 252 240 233 231 227 220 215 216 216 213 210 211 209 208 208 210 210 211 209 210 209 210
269 271 273 278 287 293 299 303 300 296 296 297 296 293 294 294 294 299 302 301 301 303 303 300 288 270 258 247 240 234 228 225 217 214 216 215 212 212 213 211 210 212 212 213 214 216 216 215 218
265 267 270 276 282 286 295 296 297 297 298 297 294 291 289 288 293 295 298 299 299 299 299 295 284 271 260 244 235 228 222 220 217 215 216 216 216 217 216 215 214 215 217 219 221 221 221 221 223
262 265 269 274 280 283 290 293 292 297 297 296 292 287 285 284 291 295 298 301 301 296 295 292 280 267 256 245 237 227 220 220 219 218 219 218 220 221 219 220 218 218 219 223 224 224 224 225 229
261 265 268 272 277 280 283 288 291 291 293 292 290 286 282 281 286 292 297 301 305 302 294 287 274 263 255 243 236 228 222 223 222 222 222 222 223 222 222 222 221 221 222 225 226 226 228 231 232
258 260 263 268 274 276 280 285 285 286 290 291 290 287 280 278 282 291 298 301 305 304 296 284 270 259 254 244 234 230 227 224 222 222 224 224 224 224 223 222 223 224 224 226 228 230 232 233 235
252 251 249 252 262 271 282 283 286 287 287 291 292 288 283 280 283 291 298 304 306 306 299 283 268 258 252 246 237 233 233 229 224 225 229 229 228 225 223 223 225 226 226 228 231 233 234 236 238
249 248 248 250 254 258 270 280 286 285 284 290 288 281 282 285 289 290 293 301 305 308 306 283 270 262 251 246 239 235 236 233 229 229 232 231 228 225 226 227 228 230 230 231 232 234 237 240 241
245 245 245 246 251 257 271 279 276 276 277 283 284 277 281 296 301 296 295 300 305 312 313 291 280 265 252 248 242 238 238 235 232 230 232 231 228 228 231 229 229 231 232 232 233 236 238 242 244
244 243 244 244 245 245 257 266 268 269 268 273 281 276 278 290 298 303 300 300 302 308 311 301 283 269 262 252 240 237 239 239 235 233 234 234 233 232 232 231 232 233 233 234 235 237 239 243 246
241 241 241 241 248 245 243 259 266 263 263 267 273 277 276 282 293 299 302 301 295 300 308 299 292 279 272 260 246 241 242 240 238 239 238 235 235 234 234 235 234 234 235 238 239 240 243 246 249
Height
5901 5900 5900 5900 5901 5902 5901 5899 5897 5895 5894 5892 5890 5889 5888 5887 5887 5889 5886 5884 5884 5884 5884 5885 5886 5886 5887 5888 5888 5889 5889 5890 5890 5890 5891 5891 5891 5891 5892 5892 5892 5892 5893 5893 5893 5894 5894 5894 5895
5902 5902 5902 5902 5903 5905 5902 5900 5898 5896 5895 5893 5891 5889 5888 5888 5887 5886 5885 5884 5884 5884 5884 5885 5886 5886 5887 5888 5888 5889 5889 5890 5890 5890 5891 5891 5891 5892 5892 5892 5892 5893 5893 5893 5894 5894 5894 5895 5895
5903 5903 5904 5904 5905 5905 5903 5901 5899 5897 5895 5894 5892 5891 5890 5888 5887 5886 5886 5885 5884 5884 5884 5884 5885 5886 5887 5887 5888 5889 5889 5890 5890 5891 5891 5891 5892 5892 5892 5893 5893 5893 5893 5894 5894 5894 5895 5895 5895
5903 5904 5905 5906 5906 5905 5903 5902 5899 5898 5896 5895 5893 5892 5890 5889 5888 5887 5886 5885 5884 5884 5884 5884 5885 5886 5886 5887 5888 5889 5889 5890 5890 5891 5891 5891 5892 5892 5893 5893 5893 5894 5894 5894 5894 5895 5895 5895 5896
5904 5905 5906 5907 5906 5905 5903 5902 5900 5899 5897 5895 5894 5892 5890 5889 5888 5887 5885 5884 5884 5883 5883 5883 5884 5885 5886 5886 5887 5888 5889 5890 5890 5891 5891 5891 5892 5893 5893 5893 5894 5894 5894 5894 5895 5895 5895 5896 5896
5905 5905 5907 5908 5906 5905 5904 5902 5901 5899 5898 5896 5894 5893 5891 5889 5887 5886 5885 5884 5883 5882 5882 5882 5883 5883 5884 5885 5886 5887 5888 5889 5890 5890 5891 5891 5892 5893 5893 5893 5894 5894 5894 5895 5895 5895 5896 5896 5896
5905 5906 5907 5907 5906 5905 5904 5903 5901 5900 5898 5896 5895 5893 5891 5889 5887 5886 5884 5883 5882 5881 5881 5881 5881 5882 5883 5884 5885 5886 5887 5889 5889 5890 5891 5891 5892 5893 5893 5893 5894 5894 5894 5895 5895 5896 5896 5896 5897
5904 5906 5906 5906 5905 5905 5904 5902 5901 5900 5898 5896 5894 5893 5891 5889 5887 5885 5883 5882 5881 5880 5879 5879 5879 5880 5881 5882 5883 5885 5886 5887 5889 5890 5890 5891 5891 5892 5893 5893 5894 5894 5894 5895 5895 5896 5896 5897 5897
5904 5906 5906 5905 5904 5904 5903 5902 5901 5899 5898 5896 5894 5892 5890 5888 5886 5884 5882 5881 5880 5878 5878 5878 5878 5878 5879 5880 5881 5883 5884 5886 5887 5888 5889 5890 5891 5891 5892 5893 5893 5894 5894 5895 5895 5896 5896 5897 5897
5903 5905 5905 5904 5903 5902 5901 5900 5899 5898 5897 5895 5893 5891 5889 5887 5885 5883 5881 5879 5878 5877 5876 5876 5876 5876 5877 5878 5879 5881 5882 5884 5886 5887 5888 5889 5890 5891 5892 5892 5893 5893 5894 5894 5895 5896 5896 5896 5897
5902 5903 5902 5901 5901 5900 5900 5899 5898 5897 5896 5894 5892 5890 5888 5886 5884 5882 5880 5878 5876 5875 5874 5874 5874 5874 5875 5876 5877 5879 5880 5882 5884 5886 5887 5888 5889 5890 5891 5892 5892 5893 5894 5894 5895 5895 5896 5896 5897
5901 5900 5900 5900 5899 5899 5898 5897 5896 5896 5895 5893 5891 5888 5886 5884 5882 5879 5878 5876 5875 5873 5872 5872 5871 5872 5873 5874 5875 5877 5878 5880 5882 5884 5885 5887 5888 5889 5890 5891 5892 5893 5893 5894 5895 5895 5896 5896 5896
5899 5899 5898 5898 5897 5897 5896 5895 5895 5894 5892 5891 5889 5887 5885 5882 5880 5877 5875 5874 5873 5872 5871 5870 5870 5870 5870 5871 5873 5874 5876 5878 5879 5881 5883 5885 5887 5888 5889 5890 5892 5892 5893 5894 5894 5895 5896 5896 5896
5897 5897 5896 5896 5895 5895 5894 5894 5893 5892 5890 5889 5887 5885 5883 5880 5878 5875 5873 5872 5871 5870 5869 5868 5868 5868 5868 5869 5870 5872 5874 5875 5877 5879 5881 5883 5885 5887 5888 5890 5891 5892 5892 5893 5894 5895 5895 5896 5896
5895 5895 5895 5894 5893 5893 5893 5892 5891 5890 5889 5887 5885 5883 5881 5879 5877 5874 5872 5871 5869 5868 5867 5866 5865 5865 5865 5866 5868 5870 5871 5873 5875 5877 5879 5881 5883 5885 5887 5889 5890 5891 5892 5893 5894 5894 5895 5895 5896
5893 5893 5893 5892 5891 5891 5892 5892 5889 5888 5887 5885 5883 5882 5880 5877 5875 5873 5870 5869 5867 5866 5865 5864 5863 5863 5863 5864 5866 5867 5869 5871 5873 5875 5877 5880 5882 5884 5885 5887 5889 5890 5891 5892 5893 5894 5894 5895 5896
5891 5891 5890 5889 5889 5888 5889 5888 5887 5885 5884 5883 5882 5880 5878 5875 5873 5871 5868 5867 5865 5864 5862 5862 5861 5861 5861 5862 5864 5865 5867 5868 5870 5873 5875 5878 5880 5882 5884 5885 5887 5889 5890 5891 5892 5893 5893 5894 5895
5888 5888 5887 5887 5886 5886 5886 5885 5884 5883 5882 5881 5879 5877 5875 5873 5870 5868 5866 5864 5863 5861 5860 5859 5859 5859 5859 5860 5861 5863 5864 5865 5868 5870 5873 5875 5878 5880 5882 5884 5885 5887 5889 5890 5891 5892 5893 5894 5894
5885 5885 5884 5883 5883 5883 5883 5883 5882 5880 5879 5878 5876 5875 5873 5870 5868 5865 5863 5862 5860 5859 5858 5857 5856 5856 5856 5858 5859 5861 5862 5863 5866 5868 5870 5873 5876 5878 5880 5882 5884 5886 5887 5889 5890 5891 5892 5893 5894
5881 5881 5881 5880 5880 5880 5880 5880 5878 5877 5876 5875 5873 5871 5870 5868 5866 5863 5861 5860 5858 5856 5855 5854 5853 5853 5854 5855 5856 5858 5860 5861 5863 5866 5868 5871 5873 5876 5878 5880 5882 5884 5886 5887 5888 5890 5891 5892 5893
5877 5877 5877 5877 5877 5877 5877 5877 5875 5874 5873 5871 5870 5868 5867 5865 5863 5861 5860 5858 5856 5855 5854 5852 5851 5851 5851 5852 5854 5856 5857 5859 5861 5863 5866 5869 5871 5873 5876 5878 5880 5882 5884 5886 5887 5888 5890 5891 5892
5872 5873 5873 5873 5874 5875 5875 5875 5873 5871 5869 5868 5867 5865 5864 5862 5861 5859 5858 5856 5854 5853 5852 5851 5850 5849 5849 5849 5851 5853 5855 5857 5859 5861 5864 5866 5869 5871 5873 5876 5878 5880 5882 5884 5885 5887 5888 5889 5890
5867 5868 5869 5870 5871 5871 5871 5871 5872 5868 5866 5865 5864 5862 5860 5859 5858 5856 5855 5854 5852 5851 5850 5849 5848 5848 5848 5848 5849 5851 5853 5855 5857 5859 5862 5864 5866 5868 5871 5873 5876 5878 5880 5882 5883 5885 5886 5887 5888
5862 5864 5865 5866 5867 5868 5868 5867 5867 5865 5863 5862 5860 5858 5857 5856 5855 5854 5852 5851 5850 5849 5847 5846 5846 5846 5846 5846 5848 5849 5851 5852 5854 5856 5859 5861 5863 5865 5868 5870 5873 5875 5877 5879 5881 5882 5884 5885 5886
5858 5861 5862 5863 5865 5865 5863 5863 5864 5861 5860 5859 5857 5855 5854 5853 5852 5851 5849 5848 5847 5846 5845 5844 5843 5843 5844 5844 5846 5847 5849 5850 5851 5853 5856 5858 5860 5862 5865 5867 5870 5872 5874 5876 5878 5879 5881 5882 5883
5853 5856 5860 5862 5864 5863 5859 5859 5860 5857 5856 5855 5854 5853 5851 5850 5849 5848 5847 5846 5845 5843 5842 5841 5840 5841 5841 5842 5843 5844 5846 5847 5849 5851 5853 5855 5857 5859 5861 5864 5866 5869 5871 5873 5875 5876 5878 5879 5880
5847 5850 5854 5856 5857 5858 5858 5857 5856 5854 5853 5853 5851 5850 5849 5848 5847 5846 5845 5844 5843 5842 5840 5839 5838 5838 5839 5839 5840 5842 5843 5845 5846 5848 5850 5851 5853 5856 5858 5860 5862 5865 5867 5869 5871 5872 5874 5875 5876
5843 5845 5848 5851 5853 5855 5856 5854 5854 5852 5851 5850 5849 5848 5847 5846 5845 5844 5843 5842 5841 5840 5839 5838 5837 5837 5837 5838 5838 5839 5841 5842 5843 5844 5846 5848 5850 5852 5854 5856 5858 5860 5863 5865 5867 5868 5870 5871 5872
5838 5840 5843 5846 5849 5852 5854 5855 5850 5849 5848 5848 5847 5846 5846 5845 5844 5843 5842 5841 5840 5839 5838 5837 5836 5836 5836 5836 5837 5837 5838 5839 5840 5842 5843 5844 5846 5848 5850 5852 5854 5856 5858 5860 5862 5864 5865 5867 5868
5833 5836 5838 5842 5843 5845 5849 5852 5846 5846 5846 5845 5845 5844 5844 5843 5842 5841 5841 5839 5839 5838 5837 5836 5835 5835 5835 5835 5835 5835 5836 5837 5838 5839 5840 5841 5843 5844 5846 5848 5850 5851 5854 5856 5857 5859 5860 5862 5863